Torna al catalogo

ONEWEB-0423

AttivoComunicazioniPO
NORAD 51627·PAYLOAD·🇬🇧 United Kingdom

Lanciato Feb 10, 2022 da Guiana Space Centre

Loading…

Prossimi Passaggi (prossime 24 ore)

TLE

AggiornatoSource: CelesTrak SupGP

Epoca: Sep 14, 2026, 20:21 UTC

1 51627C 22012F   26257.84845324 -.00002879  00000+0 -74235-2 0  2575
2 51627  87.9202 348.0593 0001949 104.7814   4.9677 13.17651818    16

Traccia ONEWEB-0423 in tempo reale con AllMySat

Download on the App Store